Home > Weather > Turaif > Past weeks

Flag for Saudi Arabia Past Weather in Turaif, Saudi Arabia — Yesterday and Last 2 Weeks

Now
75 °F

Clear.


Feels Like: 78 °F
Forecast: 76 / 100 °F
Wind: 8 mph from North

Location: Turaif

Current Time: Jul 26, 2016 at 5:38:08 AM

Latest Report: Jul 26, 2016 at 5:00 AM


Visibility: 10 mi

Pressure: 29.77 "Hg (27.07 "Hg at 827m altitude)

Humidity: 47%

Dew Point: 54 °F

Location of TuraifLocation

Past Weather in Turaif — Graph

°F

Turaif Temperature Yesterday

Maximum temperature yesterday: 99 °F (at 3:00 PM)
Minimum temperature yesterday: 72 °F (at 5:00 AM)
Average temperature yesterday: 86 °F

High & Low Weather Summary for the Past Weeks

 TemperatureHumidityPressure
High108 °F (Jul 20, 3:00 PM)74% (Jul 25, 3:00 AM)29.95 "Hg (Jul 25, 3:00 AM)
Low68 °F (Jul 24, 6:00 AM)10% (Jul 23, 5:00 PM)29.62 "Hg (Jul 18, 6:00 PM)
Average89 °F26%29.79 "Hg
* Reported Jul 11 4:00 AM — Jul 26 4:00 AM, Turaif, Weather by CustomWeather, © 2016

Note: Actual official high and low records may vary slightly from our data, if they occured in-between our weather recording intervals... More about our weather records

Advertising

Turaif Weather History for the Previous 24 Hours

Scroll right to see more
 ConditionsComfort  
Time TempWeatherWind HumidityBarometerVisibility
4:00 AM
Tue, Jul 26
77 °FClear.10 mph47%29.77 "Hg10 mi
3:00 AM79 °FClear.12 mph58%29.77 "Hg10 mi
2:00 AM79 °FClear.14 mph54%29.74 "Hg10 mi
1:00 AM79 °FClear.9 mph45%29.74 "Hg10 mi
12:00 AM82 °FClear.7 mph37%29.74 "Hg10 mi
11:00 PM
Mon, Jul 25
84 °FClear.6 mph33%29.74 "Hg10 mi
10:00 PM88 °FClear.7 mph27%29.74 "Hg10 mi
9:00 PM90 °FClear.8 mph26%29.74 "Hg10 mi
8:00 PM93 °FSunny.8 mph23%29.71 "Hg10 mi
7:00 PM95 °FSunny.9 mph23%29.71 "Hg10 mi
6:00 PM97 °FSunny.7 mph23%29.71 "Hg10 mi
5:00 PM97 °FSunny.9 mph23%29.68 "Hg10 mi
4:00 PM99 °FSunny.12 mph22%29.68 "Hg10 mi
3:00 PM99 °FSunny.8 mph22%29.71 "Hg10 mi
2:00 PM97 °FSunny.No wind23%29.71 "Hg10 mi
1:00 PM95 °FSunny.5 mph25%29.71 "Hg10 mi
12:00 PM93 °FSunny.7 mph28%29.74 "Hg10 mi
11:00 AM90 °FSunny.9 mph33%29.74 "Hg10 mi
10:00 AM86 °FSunny.12 mph40%29.74 "Hg10 mi
9:00 AM81 °FSunny.12 mph51%29.71 "Hg10 mi
8:00 AM79 °FSunny.12 mph58%29.74 "Hg10 mi
7:00 AM73 °FSunny.7 mph57%29.74 "Hg10 mi
6:00 AM72 °FClear.7 mph65%29.71 "Hg10 mi
5:00 AM72 °FClear.6 mph65%29.68 "Hg10 mi
Weather by CustomWeather, © 2016

See weather overviewHow to use our weather pages